Startseite
Über Mich
AHP4
Galerie
Sehschlangen
Tourenbuch
Bookmarks
Elektronik
Bewertung
Geschichten
[Tagesmessung] [Jahreswerte] [Information]

Messwerte vom 27.01.2022

Die letzten Messwerte von 23:58:47 Uhr:
KategorieMesswert
Temperatur [°C]4
Luftdruck [mBar]1002
Sonneneinstrahlung0
Wind [km/h]18 aus West
Niederschlag [l/m²]0
rel.Luftfeucht.96.6%
CO2 [ppm]509

Diagramme
Messwerte vom 27.01.2022
Tagesaggregation
KategorieMinimumMaximumSchnittSumme
Temperatur [°C]263.8000
Luftdruck [mBar]99810091001.8104
Sonneneinstrahlung19251.7083
Wind [km/h]27
rF [%]91.596.696.24
Niederschlag [l/m²]2.06
CO2 [ppm]401824654.1
Einordnung alsKalter Tag

Messungen an benachbarten Tagen: Zur Jahresaggregation 2022
Tabelle aller Messwerte
UhrzeitTemperatur [°C]Luftdruck [mBar]SonneWind [km/h]RichtungRegen [l/m²]rF [%]CO2 [ppm]
00:01:47 2 1009 0 1 N 0 96.6 708
00:04:46 2 1009 0 11 O 0 96.6 700
00:07:48 2 1008 0 2 SW 0 96.6 691
00:10:49 2 1009 0 6 W 0 96.6 680
00:13:49 2 1009 0 8 SW 0 96.6 691
00:16:48 2 1009 0 2 SO 0 96.6 697
00:19:48 2 1008 0 0 W 0 96.6 689
00:22:47 2 1009 0 3 W 0 96.6 686
00:25:46 2 1009 0 4 SW 0 96.6 692
00:28:47 2 1009 0 4 SO 0 96.6 688
00:31:44 2 1008 0 7 S 0 96.6 697
00:34:46 3 1008 0 3 N 0 96.6 691
00:37:48 3 1008 0 7 S 0 96.6 691
00:40:47 3 1009 0 2 SW 0 96.6 689
00:43:47 3 1008 0 7 SW 0 96.6 687
00:46:48 3 1008 0 5 W 0 96.6 685
00:49:48 3 1008 0 15 SW 0 96.6 695
00:52:46 3 1008 0 5 SO 0 96.6 695
00:55:48 3 1007 0 0 SO 0 96.6 693
00:58:48 3 1008 0 3 SW 0 96.6 691
01:01:48 3 1007 0 6 SW 0 96.6 688
01:04:49 3 1008 0 9 SW 0 96.6 682
01:07:47 3 1008 0 3 W 0 96.6 679
01:10:49 3 1009 0 5 W 0 96.6 679
01:13:46 3 1008 0 6 SW 0 96.6 679
01:16:45 3 1007 0 3 N 0 96.6 676
01:19:47 3 1007 0 2 S 0 96.6 679
01:22:47 3 1008 0 2 0 96.6 688
01:25:48 3 1008 0 6 SO 0 96.6 689
01:28:48 3 1006 0 9 S 0 96.6 693
01:31:47 3 1007 0 2 SO 0 96.6 699
01:34:47 3 1007 0 4 S 0 96.6 697
01:37:47 3 1007 0 5 SW 0 96.6 685
01:40:48 3 1007 0 8 SW 0 96.6 682
01:43:45 3 1006 0 2 W 0 96.6 677
01:46:46 3 1006 0 5 SO 0 96.6 669
01:49:47 3 1006 0 5 SW 0 96.6 679
01:52:48 3 1007 0 7 S 0 96.6 686
01:55:45 3 1006 0 7 S 0 96.6 691
01:58:46 3 1006 0 2 SW 0 96.6 697
02:01:46 3 1006 0 3 W 0 96.6 688
02:04:47 3 1007 0 4 S 0 96.6 689
02:07:46 3 1006 0 1 O 0 96.6 682
02:10:46 3 1006 0 7 S 0 96.6 682
02:13:47 3 1006 0 14 S 0 96.6 691
02:16:47 3 1006 0 13 SW 0 96.6 691
02:19:47 3 1006 0 6 S 0 96.6 694
02:22:51 3 1006 0 11 NO 0 96.6 687
02:25:46 3 1006 0 9 S 0 96.6 680
02:28:47 3 1006 0 11 S 0 96.6 675
02:31:47 3 1006 0 7 O 0 96.6 679
02:34:49 3 1006 0 6 SW 0 96.6 682
02:37:51 3 1006 0 14 S 0 96.6 689
02:40:50 3 1006 0 1 SW 0 96.6 682
02:43:46 3 1006 0 5 S 0 96.6 685
02:46:46 3 1006 0 5 S 0 96.6 677
02:49:48 3 1006 0 3 SW 0 96.6 678
02:52:46 3 1006 0 7 S 0 96.6 677
02:55:46 3 1006 0 5 SW 0 96.6 679
02:58:48 3 1006 0 5 SO 0 96.6 685
03:01:48 3 1006 0 22 S 0 96.6 682
03:04:47 3 1006 0 4 S 0 96.6 682
03:07:49 3 1006 0 10 SO 0 96.6 681
03:10:46 3 1006 0 12 W 0 96.6 694
03:13:49 3 1006 0 12 O 0 96.6 689
03:16:48 3 1006 0 11 SO 0 96.6 695
03:19:49 3 1006 0 13 SW 0 96.6 691
03:22:48 3 1005 0 5 W 0 96.6 689
03:25:47 3 1006 0 0 O 0 96.6 681
03:28:48 3 1006 0 2 SW 0 96.6 676
03:31:48 3 1006 0 3 SW 0 96.6 673
03:34:46 3 1006 0 2 S 0 96.6 664
03:37:48 3 1004 0 11 S 0 96.6 668
03:40:46 3 1005 0 4 NO 0 96.6 671
03:43:45 3 1005 0 7 S 0 96.6 670
03:46:45 3 1006 0 4 SW 0 96.6 669
03:49:46 3 1005 0 6 S 0 96.6 661
03:52:45 3 1006 0 5 S 0 96.6 650
03:55:47 3 1006 0 11 SW 0 96.6 649
03:58:45 3 1006 0 3 N 0 96.6 644
04:01:49 3 1006 0 20 SW 0 96.6 630
04:04:48 3 1005 0 4 SW 0 96.6 641
04:07:48 3 1005 0 10 W 0 96.6 650
04:10:49 3 1005 0 7 NW 0 96.6 650
04:13:50 3 1005 0 14 N 0 96.6 641
04:16:45 3 1005 0 8 W 0 96.6 638
04:19:51 3 1005 0 22 NW 0 96.6 635
04:22:45 3 1005 0 4 W 0 96.6 638
04:25:47 3 1006 0 14 W 0 96.6 637
04:28:46 3 1005 0 7 N 0 96.6 633
04:31:47 3 1005 0 9 S 0 96.6 638
04:34:46 3 1005 0 2 SW 0 96.6 633
04:37:48 3 1005 0 15 SW 0 96.6 636
04:40:48 3 1006 0 14 SW 0 96.6 636
04:43:45 3 1006 0 5 W 0 96.6 636
04:46:46 3 1005 0 15 NW 0 96.6 624
04:49:48 3 1004 0 12 SW 0 96.6 621
04:52:48 3 1005 0 9 N 0 96.6 615
04:55:45 3 1005 0 1 O 0 96.6 612
04:58:48 3 1004 0 4 W 0 96.6 609
05:01:48 3 1005 0 11 NW 0 96.5 609
05:04:45 3 1004 0 12 W 0 96.5 603
05:07:47 3 1005 0 9 S 0 96.6 613
05:10:47 3 1004 0 7 S 0 96.6 618
05:13:46 3 1005 0 0 NW 0 96.4 615
05:16:46 3 1005 0 12 SW 0 96.2 616
05:19:48 3 1005 0 3 SW 0 96 609
05:22:48 3 1004 0 26 SO 0 96 611
05:25:45 3 1004 0 7 S 0 96 608
05:28:46 3 1004 0 3 SW 0 95.6 606
05:31:46 3 1004 0 14 SW 0 95.5 603
05:34:47 3 1004 0 20 W 0 95.1 606
05:37:47 3 1004 0 22 NW 0 95 612
05:40:47 3 1004 0 2 SW 0 94.9 604
05:43:48 3 1005 0 5 W 0 95 604
05:46:49 3 1004 0 14 SW 0 94.8 600
05:49:49 3 1005 0 18 W 0 94.5 598
05:52:48 3 1004 0 9 SO 0 94.5 598
05:55:49 3 1004 0 18 W 0 94.4 597
05:58:46 3 1003 0 8 NW 0 94.3 601
06:01:47 3 1003 0 12 S 0 94.1 600
06:04:46 3 1003 0 12 SW 0 93.7 595
06:07:48 3 1003 0 27 SW 0 93.6 603
06:10:48 3 1003 0 4 SO 0 93.3 600
06:13:48 3 1003 0 6 W 0 93 601
06:16:48 3 1004 0 4 SO 0 93.4 590
06:19:49 3 1003 0 3 SW 0 93.6 593
06:22:46 3 1002 0 3 S 0 93.5 591
06:25:47 3 1003 0 10 S 0 93.6 600
06:28:47 3 1002 0 1 NW 0 93.6 592
06:31:49 3 1003 0 12 SO 0 93.4 600
06:34:49 3 1003 0 2 SW 0 93.1 600
06:37:48 3 1003 0 1 S 0 93.2 600
06:40:47 3 1003 0 6 S 0 92.7 604
06:43:45 3 1003 0 7 S 0 92.2 603
06:46:46 3 1002 0 5 SO 0 92.1 603
06:49:47 3 1003 0 2 W 0 92 598
06:52:51 3 1002 0 13 SW 0 91.9 598
06:55:46 3 1003 0 6 SW 0 91.5 597
06:58:47 3 1002 0 4 SW 0 91.6 609
07:01:48 3 1003 0 2 SW 0 91.9 610
07:04:46 3 1002 0 4 NO 0 91.9 606
07:07:47 3 1002 0 4 W 0 92.2 598
07:10:48 3 1002 0 13 SW 0 92 601
07:13:46 3 1002 0 7 SW 0 91.9 627
07:16:45 3 1002 0 3 O 0 92.1 638
07:19:46 3 1002 0 3 S 0 92.2 641
07:22:45 3 1002 0 1 N 0 92.4 646
07:25:47 3 1002 0 4 SO 0 92.5 661
07:28:47 3 1003 0 3 O 0 92.5 665
07:31:47 3 1002 0 8 S 0 92.6 674
07:34:47 3 1002 0 4 SW 0 92.6 691
07:37:50 3 1002 0 3 S 0 92.3 686
07:40:48 3 1002 0 8 S 0 92.3 688
07:43:49 3 1002 0 2 W 0 92.5 685
07:46:50 3 1002 3 8 SO 0 93 688
07:49:49 3 1002 6 4 SW 0 93.6 683
07:52:45 3 1002 7 5 S 0 94.1 680
07:55:49 3 1002 9 11 SO 0 94.7 669
07:58:48 3 1002 10 6 W 0 95.1 662
08:01:47 2 1002 13 6 SW 0 95.9 662
08:04:50 2 1002 18 12 NO 0 96.6 677
08:07:48 2 1002 25 5 SW 0 96.6 682
08:10:48 2 1002 30 10 S 0 96.6 685
08:13:50 2 1002 31 1 S 0 96.6 692
08:16:49 2 1002 37 4 N 0 96.6 700
08:19:47 2 1002 43 7 SW 0 96.6 709
08:22:48 2 1002 50 9 S 0 96.6 708
08:25:47 2 1002 56 3 O 0 96.6 715
08:28:50 2 1002 55 10 SO 0 96.6 708
08:31:47 2 1002 62 6 W 0 96.6 711
08:34:49 2 1002 68 3 N 0 96.6 719
08:37:48 2 1002 79 6 W 0 96.6 723
08:40:50 2 1002 76 13 W 0 96.6 717
08:43:48 2 1002 82 8 SW 0 96.6 705
08:46:47 2 1002 80 7 SW 0 96.6 693
08:49:48 2 1002 65 3 S 0 96.6 687
08:52:47 2 1002 64 2 S 0 96.6 685
08:55:46 2 1002 71 9 W 0 96.6 690
08:58:47 2 1002 85 8 S 0 96.6 693
09:01:48 2 1002 102 9 SW 0 96.6 700
09:04:48 2 1002 103 2 O 0 96.6 720
09:07:48 2 1002 101 1 SO 0 96.6 728
09:10:49 2 1002 127 8 S 0 96.6 735
09:13:47 2 1002 117 7 SW 0 96.6 744
09:16:46 2 1002 114 2 O 0 96.6 749
09:19:48 2 1002 134 2 S 0 96.6 751
09:22:49 2 1002 154 2 SW 0 96.6 757
09:25:49 2 1002 124 2 SW 0 96.6 758
09:28:47 2 1002 129 2 S 0 96.6 755
09:31:48 2 1002 145 8 S 0 96.6 746
09:34:49 2 1002 144 20 S 0 96.6 740
09:37:48 2 1002 141 3 SW 0 96.6 733
09:40:47 2 1002 154 5 SW 0 96.6 726
09:43:48 2 1002 167 1 SW 0 96.6 715
09:46:50 2 1002 171 3 SO 0 96.6 717
09:49:48 3 1002 145 5 S 0 96.6 729
09:52:49 3 1002 149 3 SW 0 96.6 738
09:55:47 3 1002 147 6 W 0 96.6 750
09:58:53 3 1002 160 6 NW 0 96.6 756
10:01:47 3 1002 184 2 O 0 96.6 761
10:04:49 3 1002 164 5 SO 0 96.6 772
10:07:48 3 1002 166 4 W 0 96.6 780
10:10:47 3 1002 161 9 SW 0 96.6 769
10:13:47 3 1001 151 2 S 0 96.6 764
10:16:49 3 1001 158 2 SO 0 96.6 767
10:19:49 3 1002 162 10 NW 0 96.6 774
10:22:48 3 1001 168 13 W 0 96.6 776
10:25:50 3 1001 172 2 SW 0 96.6 759
10:28:48 3 1002 175 7 SW 0 96.6 747
10:31:50 3 1001 175 4 SO 0 96.6 753
10:34:48 3 1002 186 5 SW 0 96.6 759
10:37:48 3 1002 184 6 SO 0 96.6 764
10:40:49 3 1002 178 5 O 0.2575 96.6 768
10:43:50 3 1001 183 9 NW 0 96.6 782
10:46:49 3 1002 177 15 S 0 96.6 782
10:49:46 3 1001 174 3 S 0 96.6 783
10:52:47 3 1002 183 4 W 0 96.6 785
10:55:50 3 1001 185 4 SW 0 96.6 783
10:58:48 3 1001 166 3 W 0 96.6 777
11:01:48 3 1001 161 5 SO 0 96.6 765
11:04:50 3 1002 159 9 SW 0 96.6 764
11:07:46 3 1001 158 9 N 0 96.6 761
11:10:46 3 1001 154 13 W 0 96.6 744
11:13:47 3 1001 162 4 S 0 96.6 744
11:16:48 3 1001 163 9 S 0 96.6 737
11:19:47 3 1002 169 3 W 0 96.6 732
11:22:47 4 1002 179 16 S 0 96.6 737
11:25:47 4 1000 173 9 SW 0 96.6 741
11:28:48 4 1001 179 3 NW 0 96.6 733
11:31:47 4 1001 183 5 S 0 96.6 735
11:34:48 4 1001 159 26 SW 0 96.6 741
11:37:47 4 1001 172 8 O 0 96.6 743
11:40:47 4 1001 155 2 NW 0 96.6 743
11:43:48 4 1001 179 2 NW 0 96.6 732
11:46:49 4 1000 160 2 SO 0 96.6 734
11:49:48 4 1000 180 8 SO 0 96.6 735
11:52:49 4 1001 155 5 SW 0 96.6 753
11:55:47 4 1001 154 13 SW 0 96.6 741
11:58:46 4 1001 170 1 S 0 96.6 738
12:01:50 4 1000 183 8 SO 0 96.6 742
12:04:51 4 1000 184 11 NW 0 96.6 743
12:07:49 4 1001 177 4 W 0.2575 96.6 752
12:10:50 4 1000 181 6 S 0 96.6 739
12:13:46 4 1000 178 2 N 0 96.6 738
12:16:47 4 1000 166 5 W 0 96.6 734
12:19:48 4 1000 173 7 SO 0 96.6 738
12:22:47 4 1000 179 8 SW 0 96.6 738
12:25:47 4 1000 164 1 SW 0 96.6 736
12:28:49 4 1000 170 3 W 0 96.6 724
12:31:51 4 1000 154 0 SO 0 96.6 721
12:34:47 4 1000 167 0 N 0 96.6 727
12:37:45 4 1000 167 4 W 0 96.6 737
12:40:47 4 1001 158 1 W 0 96.6 738
12:43:48 4 1000 155 10 S 0 96.6 727
12:46:47 4 1000 150 0 SW 0 96.6 713
12:49:47 4 999 145 16 W 0 96.6 709
12:52:47 4 999 146 10 W 0 96.6 709
12:55:48 4 1000 140 10 S 0 96.6 704
12:58:47 4 999 147 4 W 0 96.6 697
13:01:49 4 1000 147 8 SW 0 96.6 700
13:04:47 4 999 152 18 O 0 96.6 704
13:07:49 4 999 158 6 SW 0 96.6 705
13:10:47 5 999 151 4 S 0 96.6 709
13:13:48 5 1000 151 3 W 0 96.6 721
13:16:47 5 999 163 4 O 0 96.6 726
13:19:50 5 1000 162 10 S 0 96.6 723
13:22:47 5 999 173 9 SO 0 96.6 716
13:25:48 5 999 168 21 SW 0 96.6 715
13:28:47 5 999 141 7 SO 0 96.6 720
13:31:46 5 999 163 4 O 0 96.6 722
13:34:48 5 999 159 17 NW 0 96.6 720
13:37:47 5 999 155 3 NW 0 96.6 708
13:40:47 5 999 172 11 SW 0 96.6 705
13:43:50 5 999 166 20 SW 0 96.6 708
13:46:46 5 999 155 3 S 0 96.6 717
13:49:46 5 999 145 4 S 0 96.6 718
13:52:50 5 999 148 11 NW 0 96.6 708
13:55:48 5 999 158 6 NW 0 96.6 713
13:58:47 5 999 183 4 W 0 96.6 715
14:01:50 5 999 181 6 SW 0 96.6 718
14:04:46 5 999 170 2 NW 0 96.6 726
14:07:51 5 998 163 2 SW 0 96.6 738
14:10:48 5 999 147 10 SW 0 96.6 746
14:13:46 5 999 164 7 SO 0 96.6 739
14:16:45 5 999 174 5 W 0 96.6 739
14:19:48 5 999 156 4 O 0 96.6 746
14:22:50 5 998 146 4 SW 0 96.6 753
14:25:46 5 998 171 4 S 0 96.6 759
14:28:49 5 999 192 3 O 0 96.6 766
14:31:47 5 998 192 9 SW 0 96.6 774
14:34:47 6 999 161 9 W 0 96.6 767
14:37:47 6 999 154 6 S 0 96.6 759
14:40:47 6 998 160 3 NO 0 96.6 755
14:43:47 6 999 159 3 SO 0 96.6 760
14:46:45 6 999 161 1 N 0 96.6 768
14:49:49 6 999 153 6 SW 0 96.6 774
14:52:47 6 998 169 7 SW 0 96.6 776
14:55:46 6 999 168 9 0 96.6 773
14:58:47 6 999 166 1 SW 0 96.6 764
15:01:48 6 998 174 7 W 0 96.6 770
15:04:47 6 999 157 3 W 0 96.6 770
15:07:47 6 998 180 9 W 0 96.6 774
15:10:49 6 999 185 14 NW 0 96.6 772
15:13:45 6 998 175 3 N 0 96.6 768
15:16:47 6 999 175 5 S 0 96.6 769
15:19:50 6 999 158 6 NO 0 96.6 770
15:22:46 6 998 137 2 0 96.6 768
15:25:48 6 999 172 7 SW 0 96.6 765
15:28:46 6 998 151 7 W 0 96.6 761
15:31:47 6 998 148 9 W 0 96.6 759
15:34:48 6 998 151 5 O 0 96.6 760
15:37:49 6 998 152 8 S 0 96.6 755
15:40:47 6 998 134 3 W 0 96.6 758
15:43:47 6 999 110 11 SO 0 96.6 756
15:46:46 6 998 126 7 W 0.2575 96.6 749
15:49:48 6 998 70 12 W 0 96.6 739
15:52:48 6 998 105 8 SW 0 96.6 743
15:55:47 6 998 88 5 S 0 96.6 748
15:58:48 6 998 103 9 W 0 96.6 759
16:01:46 6 998 136 8 S 0.2575 96.6 764
16:04:48 6 999 112 6 W 0 96.6 768
16:07:46 6 998 129 5 SW 0 96.6 767
16:10:49 6 999 106 5 SO 0 96.6 782
16:13:47 6 999 149 7 SW 0 96.6 788
16:16:48 6 999 159 1 SW 0 96.6 788
16:19:48 6 998 119 13 SW 0 96.6 793
16:22:48 6 998 111 5 N 0 96.6 795
16:25:49 6 999 106 3 N 0 96.6 797
16:28:47 6 998 75 3 S 0 96.6 802
16:31:46 6 998 49 9 W 0 96.6 811
16:34:47 6 998 51 9 W 0 96.6 824
16:37:49 6 998 35 8 W 0 96.6 815
16:40:47 6 999 42 8 W 0 96.6 808
16:43:52 6 998 30 9 NW 0 96.6 808
16:46:47 6 999 26 7 W 0 96.6 806
16:49:48 6 999 20 4 SW 0.2575 96.6 803
16:52:47 6 999 16 18 SW 0.2575 96.6 802
16:55:46 6 998 14 6 S 0.2575 96.6 788
16:58:47 6 999 14 6 NW 0 96.6 757
17:01:46 5 999 11 11 W 0 96.6 741
17:04:45 5 998 10 5 S 0 96.6 753
17:07:48 5 998 11 14 SW 0 96.6 762
17:10:47 5 998 16 15 SW 0 96.6 747
17:13:47 5 998 15 8 W 0 96.6 754
17:16:47 5 998 11 6 SW 0 96.6 755
17:19:47 4 998 6 5 W 0 96.6 756
17:22:47 5 999 0 6 NW 0 96.6 750
17:25:47 5 999 0 6 SW 0 96.6 757
17:28:47 5 999 0 7 SW 0 96.6 759
17:31:48 5 998 0 16 W 0 96.6 762
17:34:45 5 998 0 16 W 0 96.6 759
17:37:46 5 999 0 4 SW 0 96.6 756
17:40:47 5 998 0 10 W 0 96.6 739
17:43:48 5 998 0 12 NW 0 96.6 730
17:46:46 5 999 0 14 S 0 96.6 732
17:49:45 5 998 0 9 O 0 96.6 729
17:52:47 5 999 0 18 W 0 96.6 723
17:55:47 5 999 0 11 NW 0 96.6 718
17:58:45 5 999 0 11 W 0 96.6 723
18:01:48 5 999 0 7 SW 0 96.6 723
18:04:45 5 999 0 4 W 0 96.6 708
18:07:48 5 999 0 15 NW 0 96.6 685
18:10:48 5 999 0 12 W 0 96.6 677
18:13:46 5 998 0 3 SO 0 96.6 679
18:16:46 5 998 0 6 SW 0 96.6 688
18:19:45 5 999 0 8 W 0 96.6 693
18:22:48 5 998 0 13 W 0 96.6 691
18:25:45 5 999 0 8 W 0 96.6 693
18:28:49 5 999 0 10 SW 0 96.6 691
18:31:46 5 999 0 9 SW 0 96.6 679
18:34:46 5 999 0 5 NW 0 96.6 682
18:37:46 5 999 0 7 SW 0 96.6 679
18:40:47 5 999 0 7 W 0 96.6 674
18:43:47 5 998 0 9 SW 0 96.6 472
18:46:45 5 999 0 10 W 0 96.6 407
18:49:46 5 999 0 11 SO 0 96.6 404
18:52:44 5 999 0 9 W 0 96.6 407
18:55:48 5 999 0 6 SW 0 96.6 408
18:58:46 5 999 0 7 SW 0 96.6 407
19:01:46 5 999 0 9 O 0 96.6 406
19:04:46 5 999 0 9 NO 0 96.6 404
19:07:48 5 998 0 5 SW 0 96.6 407
19:10:49 5 999 0 4 NW 0 96.6 406
19:13:46 5 998 0 6 NW 0 96.6 404
19:16:48 5 999 0 7 NW 0 96.6 404
19:19:48 5 999 0 2 SO 0 96.6 407
19:22:44 5 998 0 8 W 0 96.6 404
19:25:45 5 999 0 6 W 0 96.6 401
19:28:46 5 999 0 17 W 0 96.6 403
19:31:47 5 999 0 21 SW 0 96.6 401
19:34:48 5 1000 0 7 NW 0 96.6 406
19:37:49 5 1000 0 26 SW 0 96.6 407
19:40:45 5 999 0 9 W 0 96.6 407
19:43:47 5 999 0 17 W 0 96.6 406
19:46:48 5 1000 0 11 S 0 96.6 406
19:49:48 4 1000 0 9 NW 0 96.6 406
19:52:47 4 999 0 8 S 0 96.6 407
19:55:46 4 1000 0 8 N 0 96.6 407
19:58:48 4 1000 0 4 SW 0 96.6 407
20:01:46 4 1000 0 17 W 0 96.6 406
20:04:47 4 1000 0 10 W 0 96.6 404
20:07:47 4 999 0 12 SW 0 96.6 407
20:10:50 4 1000 0 4 NW 0 96.6 404
20:13:47 4 1000 0 9 NW 0 96.6 407
20:16:47 4 999 0 6 O 0 96.6 406
20:19:46 4 1000 0 11 S 0 96.6 407
20:22:49 4 1000 0 11 O 0 96.6 407
20:25:46 4 1000 0 9 W 0 96.6 407
20:28:49 4 1000 0 11 NW 0 96.6 407
20:31:45 4 1000 0 5 W 0 96.6 407
20:34:46 4 1001 0 5 SW 0 96.6 416
20:37:49 4 1000 0 5 W 0 96.6 433
20:40:46 4 1001 0 13 SW 0 96.6 448
20:43:49 4 1000 0 15 W 0 96.6 452
20:46:48 4 1000 0 7 NW 0 96.6 454
20:49:48 4 1000 0 10 O 0 96.6 468
20:52:46 4 1000 0 9 W 0 96.6 472
20:55:48 4 1000 0 8 SW 0 96.6 480
20:58:47 4 1001 0 6 W 0 96.6 483
21:01:46 4 1000 0 10 S 0 96.6 489
21:04:47 4 1001 0 7 SW 0 96.6 491
21:07:47 4 1001 0 19 NW 0 96.6 489
21:10:46 4 1000 0 6 S 0 96.6 488
21:13:47 4 1001 0 8 SW 0 96.6 488
21:16:47 4 1000 0 7 SW 0 96.6 527
21:19:45 4 1000 0 14 S 0 96.6 533
21:22:49 4 1000 0 11 W 0 96.6 539
21:25:46 4 1000 0 10 SW 0 96.6 547
21:28:47 4 1001 0 6 SW 0 96.6 551
21:31:48 4 1000 0 7 NW 0 96.6 542
21:34:46 4 1000 0 4 SW 0 96.6 541
21:37:48 4 1001 0 17 SO 0 96.6 538
21:40:46 4 1001 0 9 S 0 96.6 545
21:43:47 4 1001 0 6 W 0 96.6 550
21:46:47 4 1001 0 6 SW 0 96.6 553
21:49:46 4 1001 0 16 W 0 96.6 548
21:52:45 4 1001 0 14 S 0 96.6 550
21:55:47 4 1001 0 10 SW 0 96.6 553
21:58:47 4 1001 0 15 S 0 96.6 554
22:01:48 4 1002 0 13 S 0 96.6 545
22:04:48 4 1002 0 11 SW 0 96.6 547
22:07:50 4 1002 0 11 W 0 96.6 539
22:10:49 4 1001 0 18 W 0 96.6 538
22:13:48 4 1002 0 14 W 0 96.6 530
22:16:45 4 1002 0 7 N 0 96.6 518
22:19:47 4 1002 0 20 SW 0 96.6 519
22:22:49 4 1001 0 22 NW 0 96.6 518
22:25:47 4 1002 0 6 SW 0 96.6 521
22:28:47 4 1001 0 15 W 0 96.6 513
22:31:49 4 1002 0 8 SW 0 96.6 517
22:34:46 4 1002 0 17 NW 0 96.6 524
22:37:48 4 1002 0 18 S 0 96.6 528
22:40:48 4 1002 0 10 NW 0 96.6 524
22:43:47 4 1002 0 6 SW 0 96.6 521
22:46:46 4 1002 0 9 SW 0 96.6 524
22:49:50 4 1002 0 14 SW 0.2575 96.6 527
22:52:46 4 1002 0 12 N 0 96.6 530
22:55:47 4 1002 0 3 SW 0 96.6 531
22:58:47 4 1002 0 6 W 0 96.6 532
23:01:48 4 1002 0 13 S 0 96.6 536
23:04:46 4 1001 0 8 S 0 96.6 538
23:07:47 4 1002 0 8 W 0 96.6 542
23:10:46 4 1001 0 7 SW 0 96.6 541
23:13:49 4 1002 0 9 W 0 96.6 550
23:16:46 4 1002 0 13 SW 0 96.6 544
23:19:49 4 1002 0 26 SW 0 96.6 536
23:22:51 4 1002 0 3 SW 0 96.6 535
23:25:48 4 1002 0 11 SW 0 96.6 530
23:28:48 3 1002 0 13 NW 0 96.6 524
23:31:49 3 1002 0 21 SW 0 96.6 518
23:34:46 3 1002 0 21 NW 0 96.6 527
23:37:47 4 1002 0 7 SW 0 96.6 521
23:40:45 4 1002 0 9 W 0 96.6 515
23:43:46 4 1002 0 18 S 0 96.6 512
23:46:49 4 1002 0 4 SW 0 96.6 516
23:49:47 4 1002 0 7 SW 0 96.6 515
23:52:51 4 1002 0 21 NW 0 96.6 518
23:55:47 4 1002 0 12 SW 0 96.6 513
23:58:47 4 1002 0 18 W 0 96.6 509

Letzte Änderung : 22-Jul-2022
Copyright Jens Köhler, Wolfsburg, Obere Dorfstraße 10d